Location: Camaret
(48.2753°N, 4.5961°W)
Time: 03:08:48
(UTC+00:00)

Cosmos 1455 - Pass Details

Date: 29 October 2020
Orbit: 499 x 521 km, 82.5° (Epoch: 01 December)

Event Time Altitude Azimuth Distance (km) Brightness Sun altitude
Rises 17:52:36 0° 149° (SSE) 2,602 5.6 -8.7°
Reaches altitude 10° 17:55:12 10° 130° (SE) 1,728 4.5 -9.1°
Maximum altitude 17:57:48 18° 87° (E) 1,316 3.6 -9.5°
Drops below altitude 10° 18:00:25 10° 43° (NE) 1,748 4.4 -10.0°
Sets 18:03:04 0° 24° (NNE) 2,646 5.5 -10.4°
